Location: Bu�n Treun
(12.1333°N, 108.3167°E)
Time: 13:22:45
(UTC+00:00)

Cosmos 1437 - Pass Details

Date: 13 July 2020
Orbit: 369 x 375 km, 81.2° (Epoch: 06 August)

Event Time Altitude Azimuth Distance (km) Brightness Sun altitude
Rises 21:50:06 0° 6° (N) 2,211 6.9 -9.6°
Reaches altitude 10° 21:52:11 10° 17° (NNE) 1,362 6.0 -9.2°
Maximum altitude 21:54:54 33° 84° (E) 643 4.5 -8.6°
Drops below altitude 10° 21:57:36 10° 150° (SSE) 1,359 5.4 -8.0°
Sets 21:59:40 0° 160° (SSE) 2,207 6.4 -7.5°
